Overview Statistics Trail Chart Weather Telemetry Raw packets
 

This is the latest recevied weather packets stored in our database for station/object N2ZVN. If no packets are shown the sender has not sent any weather packets the latest 10 day(s).

<< 1 2 3 4 5 6 >>
Time Temp. Humidity Pressure Rain* Wind** Luminosity Snow
1788705020 19.44° C 80% 1020.3 hPa 0 mm - 126 W/m² -
1788704719 19.44° C 81% 1020.4 hPa 0 mm - 170 W/m² -
1788704415 19.44° C 82% 1020.2 hPa 0 mm - 134 W/m² -
1788704114 19.44° C 81% 1020.3 hPa 0 mm - 152 W/m² -
1788703809 20° C 81% 1020.2 hPa 0 mm - 98 W/m² -
1788703509 19.44° C 82% 1020.2 hPa 0 mm - 181 W/m² -
1788703208 19.44° C 83% 1020 hPa 0 mm - 182 W/m² -
1788702929 19.44° C 83% 1020.1 hPa 0 mm - 128 W/m² -
1788702601 19.44° C 83% 1019.9 hPa 0 mm - 70 W/m² -
1788702297 19.44° C 83% 1019.8 hPa 0 mm - 129 W/m² -
1788701996 19.44° C 84% 1019.8 hPa 0 mm - 159 W/m² -
1788701693 18.89° C 84% 1019.7 hPa 0 mm - 81 W/m² -
1788701388 19.44° C 85% 1020 hPa 0 mm - 62 W/m² -
1788701119 19.44° C 85% 1019.8 hPa 0 mm - 69 W/m² -
1788700778 20° C 84% 1019.7 hPa 0 mm - 136 W/m² -
1788700474 18.89° C 87% 1019.6 hPa 0 mm - 381 W/m² -
1788700170 18.89° C 88% 1019.7 hPa 0 mm - 89 W/m² -
1788699869 18.89° C 90% 1019.8 hPa 0 mm - 127 W/m² -
1788699569 18.89° C 90% 1019.5 hPa 0 mm - 50 W/m² -
1788699266 18.89° C 91% 1019.4 hPa 0 mm - 52 W/m² -
1788698966 18.89° C 91% 1019.8 hPa 0 mm - 55 W/m² -
1788698662 18.89° C 91% 1019.4 hPa 0 mm - 41 W/m² -
1788698356 18.89° C 92% 1019.4 hPa 0 mm - 45 W/m² -
1788698056 18.33° C 93% 1019.4 hPa 0 mm - 71 W/m² -
1788697755 18.33° C 95% 1019.3 hPa 0 mm - 51 W/m² -

* Rain latest hour (hover to see other rain measurements)
** Current wind speed in m/s (hover to see current wind gust speed)